| time (UTC) | temp C | wind direction | speed KPH | gust KPH | rain 1hr cm | rain 24hr cm | rain mn cm | humidity % | barometer mb |
| 20260504160348 | 26 | 193 | 4.8 | 4.8 | 0.00 | 0.00 | 0.00 | 86 | 1015.0 |
| 20260504150346 | 25 | 166 | 3.2 | 1.6 | 0.00 | 0.00 | 0.00 | 90 | 1016.0 |
| 20260504140344 | 19 | 126 | 1.6 | 1.6 | 0.00 | 0.00 | 0.00 | 95 | 1016.0 |
| 20260504130342 | 19 | 97 | 3.2 | 3.2 | 0.00 | 0.00 | 0.00 | 96 | 1016.0 |
| 20260504110337 | 15 | 4 | 1.6 | 1.6 | 0.00 | 0.00 | 0.00 | 92 | 1016.0 |
| 20260504100335 | 20 | 10 | 1.6 | 1.6 | 0.00 | 0.00 | 0.00 | 92 | 1015.0 |
| 20260504080331 | 16 | 328 | 0.0 | 0.0 | 0.00 | 0.00 | 0.00 | 91 | 1015.0 |
| 20260504070329 | 17 | 307 | 0.0 | 0.0 | 0.03 | 0.00 | 0.00 | 92 | 1015.0 |
| 20260504050325 | 18 | 292 | 1.6 | 0.0 | 0.05 | 0.00 | 0.00 | 91 | 1016.0 |
| 20260504043324 | 18 | 292 | 1.6 | 0.0 | 0.00 | 0.00 | 0.00 | 93 | 1016.0 |
| 20260504040323 | 18 | 272 | 1.6 | 1.6 | 0.00 | 0.00 | 0.00 | 91 | 1017.0 |
| 20260504033322 | 18 | 272 | 1.6 | 1.6 | 0.00 | 0.00 | 0.00 | 92 | 1016.0 |
| 20260504030321 | 19 | 294 | 1.6 | 1.6 | 0.00 | 0.00 | 0.00 | 90 | 1016.0 |
| 20260504023320 | 19 | 294 | 1.6 | 1.6 | 0.00 | 0.00 | 0.00 | 92 | 1015.0 |
| 20260504020319 | 20 | 293 | 3.2 | 3.2 | 0.00 | 0.00 | 0.00 | 90 | 1015.0 |
| 20260504013317 | 20 | 293 | 3.2 | 3.2 | 0.00 | 0.00 | 0.00 | 92 | 1014.0 |
| 20260504010316 | 20 | 313 | 6.4 | 8.0 | 0.00 | 0.00 | 0.00 | 89 | 1014.0 |
| 20260504003315 | 21 | 313 | 6.4 | 8.0 | 0.00 | 0.00 | 0.00 | 92 | 1013.0 |
| 20260504000314 | 21 | 329 | 6.4 | 11.3 | 0.00 | 0.00 | 0.00 | 91 | 1012.0 |
| 20260503233313 | 21 | 326 | 6.4 | 11.3 | 0.00 | 0.00 | 0.00 | 90 | 1012.0 |
| 20260503230312 | 21 | 296 | 6.4 | 8.0 | 0.00 | 0.00 | 0.00 | 86 | 1011.0 |
| 20260503223311 | 21 | 296 | 6.4 | 8.0 | 0.00 | 0.00 | 0.00 | 88 | 1010.0 |
| 20260503220310 | 22 | 276 | 8.0 | 12.9 | 0.00 | 0.00 | 0.00 | 85 | 1011.0 |
| 20260503213309 | 22 | 276 | 8.0 | 12.9 | 0.00 | 0.00 | 0.00 | 84 | 1010.0 |
| 20260503210308 | 22 | 273 | 9.7 | 12.9 | 0.00 | 0.00 | 0.00 | 82 | 1010.0 |
| 20260503203307 | 28 | 273 | 9.7 | 12.9 | 0.00 | 0.00 | 0.00 | 77 | 1009.0 |
| 20260503200305 | 28 | 274 | 9.7 | 9.7 | 0.00 | 0.00 | 0.00 | 78 | 1010.0 |
| 20260503193305 | 30 | 274 | 9.7 | 9.7 | 0.00 | 0.00 | 0.00 | 74 | 1009.0 |
| 20260503190303 | 30 | 259 | 8.0 | 8.0 | 0.00 | 0.00 | 0.00 | 78 | 1011.0 |
| 20260503183303 | 28 | 259 | 8.0 | 8.0 | 0.00 | 0.00 | 0.00 | 74 | 1010.0 |
| 20260503180301 | 28 | 232 | 6.4 | 4.8 | 0.00 | 0.00 | 0.00 | 76 | 1011.0 |
| 20260503173300 | 28 | 251 | 6.4 | 4.8 | 0.00 | 0.00 | 0.00 | 76 | 1012.0 |
| 20260503170259 | 26 | 227 | 3.2 | 3.2 | 0.00 | 0.00 | 0.00 | 84 | 1014.0 |